Milledgeville, GA

7:28 AM EDT on August 23, 2017 (GMT -0400)
Baldwin County

Weather History for KMLJ - July, 2013

Change the Weather History Date:

Saturday, July 13, 2013

  Actual Average (KOKZ) Record (KOKZ)
Temperature  
Mean Temperature 76 °F -  
Max Temperature 80 °F 92 °F 98 °F (2015)
Min Temperature 73 °F 70 °F 70 °F (2016)
Cooling Degree Days 12    
Growing Degree Days 26 (Base 50)    
Moisture  
Dew Point 70 °F    
Average Humidity 81    
Maximum Humidity 94    
Minimum Humidity 61    
Precipitation  
Precipitation 0.00 in - - ()
Sea Level Pressure  
Sea Level Pressure 30.01 in    
Wind  
Wind Speed 2 mph (ENE)    
Max Wind Speed 8 mph    
Max Gust Speed -    
Visibility 10 miles    
Events Rain , Thunderstorm    
Averages and records for this station are not official NWS values.
T = Trace of Precipitation, MM = Missing Value Source: NWS Daily Summary

Daily Weather History Graph

Daily Weather History Graph

Search for Another Location

Airport or City:

Trip Planner

Search our weather history database for the weather conditions in past years. The results will help you decide how hot, cold, wet, or windy it might be!

Date:

Astronomy

Jul. 13, 2013 Rise Set
Actual Time 6:33 AM EDT 8:43 PM EDT
Civil Twilight 6:05 AM EDT 9:11 PM EDT
Nautical Twilight 5:31 AM EDT 9:45 PM EDT
Astronomical Twilight 4:54 AM EDT 10:22 PM EDT
Moon 11:30 AM EDT (7/13) 11:43 PM EDT (7/13)
Length of Visible Light 15h 05m
Length of Day
14h 09m
Waxing Crescent, 25% of the Moon is Illuminated
Jul 13
Waxing Crescent
Jul 15
First Quarter
Jul 22
Full
Jul 29
Last Quarter
Aug 6
New

Hourly Weather History & Observations

Time (EDT) Temp. Heat Index Dew Point Humidity Pressure Visibility Wind Dir Wind Speed Gust Speed Precip Events Conditions
12:15 AM 73.4 °F - 64.4 °F 73% 29.95 in 10.0 mi Calm Calm - N/A Thunderstorm Thunderstorm
12:35 AM 73.4 °F - 69.8 °F 88% 29.96 in 10.0 mi North 3.5 mph - N/A Thunderstorm Unknown
12:55 AM 77.0 °F - 71.6 °F 83% 29.96 in 10.0 mi Calm Calm - N/A Rain , Thunderstorm Light Thunderstorms and Rain
1:15 AM 73.4 °F - 69.8 °F 88% 29.94 in 10.0 mi Calm Calm - N/A   Mostly Cloudy
1:35 AM 73.4 °F - 68.0 °F 83% 29.95 in 10.0 mi Calm Calm - N/A Rain Light Rain
1:55 AM 73.4 °F - 69.8 °F 88% 29.95 in 10.0 mi ENE 6.9 mph - N/A   Scattered Clouds
2:15 AM 73.4 °F - 69.8 °F 88% 29.95 in 10.0 mi Calm Calm - N/A   Scattered Clouds
2:35 AM 73.4 °F - 69.8 °F 88% 29.95 in 10.0 mi Calm Calm - N/A   Mostly Cloudy
2:55 AM 73.4 °F - 69.8 °F 88% 29.94 in 10.0 mi Calm Calm - N/A   Mostly Cloudy
3:15 AM 73.4 °F - 69.8 °F 88% 29.94 in 10.0 mi ENE 3.5 mph - N/A   Scattered Clouds
3:35 AM 73.4 °F - 69.8 °F 88% 29.94 in 10.0 mi Calm Calm - N/A   Mostly Cloudy
3:55 AM 73.4 °F - 71.6 °F 94% 29.94 in 10.0 mi NE 3.5 mph - N/A   Overcast
4:15 AM 73.4 °F - 69.8 °F 88% 29.94 in 10.0 mi Calm Calm - N/A   Overcast
4:35 AM 73.4 °F - 71.6 °F 94% 29.94 in 10.0 mi Calm Calm - N/A   Scattered Clouds
4:55 AM 73.4 °F - 71.6 °F 94% 29.94 in 10.0 mi Calm Calm - N/A   Scattered Clouds
5:15 AM 73.4 °F - 71.6 °F 94% 29.94 in 10.0 mi Calm Calm - N/A   Mostly Cloudy
5:35 AM 75.2 °F - 71.6 °F 89% 29.94 in 10.0 mi Calm Calm - N/A   Overcast
5:55 AM 73.4 °F - 71.6 °F 94% 29.95 in 10.0 mi Calm Calm - N/A   Overcast
6:15 AM 75.2 °F - 71.6 °F 89% 29.96 in 10.0 mi Calm Calm - N/A   Overcast
6:35 AM 75.2 °F - 71.6 °F 89% 29.96 in 10.0 mi ENE 3.5 mph - N/A   Overcast
6:55 AM 75.2 °F - 71.6 °F 89% 29.97 in 10.0 mi Calm Calm - N/A Thunderstorm Overcast
7:15 AM 75.2 °F - 71.6 °F 89% 29.97 in 10.0 mi Calm Calm - N/A   Overcast
7:35 AM 77.0 °F - 71.6 °F 83% 29.98 in 10.0 mi East 4.6 mph - N/A   Overcast
7:55 AM 77.0 °F - 71.6 °F 83% 29.99 in 10.0 mi East 5.8 mph - N/A   Overcast
8:15 AM 75.2 °F - 71.6 °F 89% 29.99 in 10.0 mi East 4.6 mph - N/A   Overcast
8:35 AM 77.0 °F - 71.6 °F 83% 30.00 in 10.0 mi East 5.8 mph - N/A Rain Light Rain
8:55 AM 77.0 °F - 71.6 °F 83% 30.01 in 10.0 mi East 4.6 mph - N/A   Overcast
9:15 AM 77.0 °F - 71.6 °F 83% 30.02 in 10.0 mi East 5.8 mph - N/A   Overcast
9:35 AM 77.0 °F - 71.6 °F 83% 30.03 in 10.0 mi East 4.6 mph - N/A   Overcast
9:55 AM 77.0 °F - 69.8 °F 78% 30.03 in 10.0 mi East 5.8 mph - N/A Thunderstorm Overcast
10:15 AM 77.0 °F - 71.6 °F 83% 30.04 in 10.0 mi Calm Calm - N/A   Overcast
10:35 AM 77.0 °F - 69.8 °F 78% 30.04 in 10.0 mi ENE 3.5 mph - N/A Thunderstorm Overcast
10:55 AM 78.8 °F - 69.8 °F 74% 30.04 in 10.0 mi ENE 4.6 mph - N/A   Overcast
11:15 AM 78.8 °F - 69.8 °F 74% 30.04 in 10.0 mi East 4.6 mph - N/A   Overcast
11:35 AM 78.8 °F - 69.8 °F 74% 30.04 in 10.0 mi East 8.1 mph - N/A   Overcast
11:55 AM 80.6 °F 82.7 °F 66.2 °F 61% 30.04 in 10.0 mi East 4.6 mph - N/A   Mostly Cloudy
12:15 PM 78.8 °F - 66.2 °F 65% 30.05 in 10.0 mi ENE 4.6 mph - N/A   Overcast
12:35 PM 78.8 °F - 66.2 °F 65% 30.05 in 10.0 mi East 6.9 mph - N/A   Overcast
12:55 PM 78.8 °F - 66.2 °F 65% 30.05 in 10.0 mi East 6.9 mph - N/A   Overcast
1:15 PM 78.8 °F - 66.2 °F 65% 30.05 in 10.0 mi East 4.6 mph - N/A   Overcast
1:35 PM 78.8 °F - 68.0 °F 69% 30.05 in 10.0 mi ENE 5.8 mph - N/A   Overcast
1:55 PM 77.0 °F - 66.2 °F 69% 30.05 in 10.0 mi East 5.8 mph - N/A   Overcast
2:15 PM 77.0 °F - 68.0 °F 74% 30.05 in 10.0 mi East 4.6 mph - N/A   Overcast
2:35 PM 77.0 °F - 69.8 °F 78% 30.04 in 10.0 mi Calm Calm - N/A Rain Light Rain
2:55 PM 77.0 °F - 69.8 °F 78% 30.04 in 10.0 mi Calm Calm - N/A Rain Light Rain
3:15 PM 77.0 °F - 71.6 °F 83% 30.03 in 10.0 mi East 3.5 mph - N/A Rain Light Rain
3:35 PM 78.8 °F - 69.8 °F 74% 30.03 in 10.0 mi East 4.6 mph - N/A   Scattered Clouds
3:55 PM 78.8 °F - 69.8 °F 74% 30.03 in 10.0 mi Calm Calm - N/A   Clear
4:15 PM 78.8 °F - 69.8 °F 74% 30.02 in 10.0 mi NE 3.5 mph - N/A   Scattered Clouds
4:35 PM 78.8 °F - 69.8 °F 74% 30.01 in 10.0 mi ENE 4.6 mph - N/A Rain Light Rain
4:55 PM 80.6 °F 83.2 °F 68.0 °F 65% 30.01 in 10.0 mi East 3.5 mph - N/A   Mostly Cloudy
5:15 PM 80.6 °F 83.2 °F 68.0 °F 65% 30.01 in 10.0 mi Calm Calm - N/A   Mostly Cloudy
5:35 PM 80.6 °F 83.9 °F 69.8 °F 70% 30.00 in 10.0 mi Calm Calm - N/A   Mostly Cloudy
5:55 PM 78.8 °F - 69.8 °F 74% 30.01 in 10.0 mi Calm Calm - N/A   Overcast
6:15 PM 80.6 °F 83.2 °F 68.0 °F 65% 30.01 in 10.0 mi Calm Calm - N/A   Scattered Clouds
6:35 PM 80.6 °F 83.9 °F 69.8 °F 70% 30.02 in 10.0 mi Calm Calm - N/A   Mostly Cloudy
6:55 PM 80.6 °F 83.2 °F 68.0 °F 65% 30.02 in 10.0 mi Calm Calm - N/A   Mostly Cloudy
7:15 PM 77.0 °F - 69.8 °F 78% 30.03 in 1.2 mi Calm Calm - N/A Rain Heavy Rain
7:35 PM 77.0 °F - 73.4 °F 89% 30.03 in 10.0 mi Calm Calm - N/A   Scattered Clouds
7:55 PM 77.0 °F - 73.4 °F 89% 30.03 in 10.0 mi East 3.5 mph - N/A   Clear
8:15 PM 77.0 °F - 73.4 °F 89% 30.03 in 10.0 mi Calm Calm - N/A   Clear
8:35 PM 77.0 °F - 73.4 °F 89% 30.03 in 2.5 mi Calm Calm - N/A   Clear
8:55 PM 77.0 °F - 73.4 °F 89% 30.03 in 10.0 mi Calm Calm - N/A   Clear
9:15 PM 77.0 °F - 73.4 °F 89% 30.04 in 10.0 mi Calm Calm - N/A   Scattered Clouds
9:35 PM 77.0 °F - 73.4 °F 89% 30.04 in 10.0 mi Calm Calm - N/A   Mostly Cloudy
9:55 PM 77.0 °F - 73.4 °F 89% 30.04 in 10.0 mi Calm Calm - N/A   Overcast
10:15 PM 77.0 °F - 73.4 °F 89% 30.04 in 10.0 mi Calm Calm - N/A Rain Light Rain
10:35 PM 77.0 °F - 73.4 °F 89% 30.05 in 10.0 mi Calm Calm - N/A Rain Rain
10:55 PM 77.0 °F - 71.6 °F 83% 30.05 in 10.0 mi Calm Calm - N/A   Overcast
11:15 PM 77.0 °F - 71.6 °F 83% 30.05 in 10.0 mi Calm Calm - N/A   Scattered Clouds
11:35 PM 77.0 °F - 71.6 °F 83% 30.06 in 10.0 mi Calm Calm - N/A   Clear
11:55 PM 75.2 °F - 71.6 °F 89% 30.06 in 10.0 mi Calm Calm - N/A   Clear